EW7630 Weather Reports


time (UTC)temp
C
wind
direction
speed
KPH
gust
KPH
rain 1hr
cm
rain 24hr
cm
rain mn
cm
humidity
%
barometer
mb
20260505102052 12 8 6.4 11.3 0.23 7.16 0.28 92 1006.0
20260505101029 12 38 4.8 6.4 0.23 7.16 0.28 90 1006.0
20260505100024 13 167 6.4 12.9 0.20 7.14 0.25 92 1006.0
20260505095042 15 19 6.4 11.3 0.15 7.09 0.20 95 1006.4
20260505094057 15 315 3.2 6.4 0.08 7.01 0.13 94 1005.2
20260505093032 15 341 1.6 6.4 0.10 7.01 0.13 94 1005.5
20260505092022 15 341 1.6 4.8 0.03 6.93 0.05 94 1005.0
20260505091019 15 317 1.6 4.8 0.03 6.93 0.05 93 1004.7
20260505090034 15 0.0 0.0 0.03 6.93 0.05 93 1004.6
20260505085018 15 0.0 0.0 0.03 6.93 0.05 93 1004.4
20260505084026 15 0.0 0.0 0.03 6.93 0.05 93 1004.3
20260505083023 15 0.0 0.0 0.00 6.91 0.03 92 1004.2
20260505082019 15 0.0 0.0 0.00 6.91 0.03 92 1004.0
20260505081021 15 0.0 0.0 0.00 6.91 0.03 92 1003.9
20260505080023 15 0.0 0.0 0.00 6.91 0.03 92 1003.9
20260505075023 15 0.0 0.0 0.03 6.91 0.03 91 1003.6
20260505074021 15 167 1.6 3.2 0.03 6.91 0.03 91 1004.3
20260505073017 15 0.0 0.0 0.03 6.91 0.03 89 1004.5
20260505072026 15 0.0 0.0 0.03 6.91 0.03 88 1004.7
20260505071023 16 3 1.6 4.8 0.03 6.91 0.03 86 1004.9
20260505070018 16 10 3.2 6.4 0.03 6.91 0.03 84 1005.1
20260505065020 17 354 8.0 16.1 0.00 6.88 0.00 80 1005.2
20260505064035 18 354 11.3 22.5 0.00 6.88 0.00 71 1005.0
20260505063030 21 330 14.5 25.7 0.00 6.88 0.00 64 1003.2
20260505062033 21 206 6.4 11.3 0.00 6.88 0.00 66 1003.0
20260505061054 21 34 4.8 8.0 0.00 6.88 0.00 66 1002.8
20260505060030 21 237 3.2 11.3 0.00 6.88 0.00 66 1002.6
20260505055033 21 230 4.8 8.0 0.00 6.88 0.00 65 1002.4
20260505054029 21 228 6.4 9.7 0.00 6.88 0.00 64 1002.0
20260505053026 21 132 4.8 9.7 0.00 6.88 0.00 65 1002.2
20260505052046 21 162 4.8 9.7 0.00 6.88 0.00 64 1002.2
20260505051027 21 228 6.4 8.0 0.00 6.88 0.00 63 1002.0
20260505041023 21 183 6.4 9.7 0.00 6.88 6.88 63 1001.5
20260505040027 22 182 3.2 8.0 0.00 6.99 6.88 62 1001.6
20260505035025 22 158 3.2 9.7 0.00 6.99 6.88 62 1001.8
20260505034101 22 173 3.2 6.4 0.00 6.99 6.88 62 1002.0
20260505033037 22 161 3.2 8.0 0.00 6.99 6.88 61 1002.0
20260505032020 22 171 4.8 11.3 0.00 6.99 6.88 60 1002.0
20260505031034 22 197 3.2 6.4 0.00 6.99 6.88 61 1001.9
20260505030029 22 136 4.8 8.0 0.00 6.99 6.88 61 1001.9
20260505025025 22 236 1.6 6.4 0.00 6.99 6.88 62 1001.7
20260505024027 22 167 3.2 8.0 0.00 6.99 6.88 61 1001.4
20260505023028 22 168 3.2 6.4 0.00 6.99 6.88 61 1001.1
20260505022027 22 179 4.8 8.0 0.00 6.99 6.88 61 1000.8
20260505021023 22 162 4.8 11.3 0.00 6.99 6.88 61 1000.7
20260505020039 22 155 4.8 8.0 0.00 6.99 6.88 62 1000.7
20260505015039 23 206 4.8 8.0 0.00 6.99 6.88 61 1000.6
20260505014112 23 178 4.8 9.7 0.00 6.99 6.88 60 1000.4
20260505013026 23 164 4.8 8.0 0.00 6.99 6.88 60 1000.3
20260505012029 23 136 4.8 8.0 0.00 6.99 6.88 62 1000.3
20260505011026 22 157 3.2 6.4 0.00 6.99 6.88 64 1000.3
20260505010024 22 163 1.6 4.8 0.00 6.99 6.88 66 1000.1
20260505005020 22 178 1.6 4.8 0.00 6.99 6.88 67 1000.0
20260505004035 22 159 1.6 6.4 0.00 6.99 6.88 70 999.9
20260505003032 22 163 1.6 4.8 0.00 6.99 6.88 69 1000.0
20260505002034 22 174 1.6 4.8 0.00 6.99 6.88 69 999.9
20260505001017 23 142 1.6 4.8 0.00 6.99 6.88 68 999.9
20260505000031 23 161 1.6 3.2 0.00 6.99 6.88 68 999.9
20260504235054 23 180 1.6 3.2 0.00 6.99 6.88 68 1000.0
20260504234028 23 182 3.2 6.4 0.00 6.99 6.88 66 1000.3
20260504233023 23 0.0 0.0 0.00 6.99 6.88 67 1000.4
20260504232019 22 357 1.6 6.4 0.00 6.99 6.88 68 999.8
20260504231033 22 140 6.4 9.7 0.00 6.99 6.88 67 999.9
20260504230018 23 162 4.8 8.0 0.00 6.99 6.88 65 1000.1
20260504225112 23 193 3.2 6.4 0.00 6.99 6.88 61 1000.7
20260504224028 24 161 4.8 6.4 0.00 6.99 6.88 60 1001.0
20260504223030 24 178 6.4 9.7 0.00 6.99 6.88 60 1001.2
20260504222032 24 170 4.8 8.0 0.00 6.99 6.88 60 1001.2
20260504221035 24 181 4.8 6.4 0.00 6.99 6.88 61 1001.3
20260504220031 24 186 6.4 11.3 0.00 6.99 6.88 60 1001.3
20260504215034 24 188 4.8 11.3 0.00 6.99 6.88 59 1001.2
20260504214030 24 170 8.0 16.1 0.00 6.99 6.88 58 1001.1
20260504213026 24 202 6.4 17.7 0.00 6.99 6.88 57 1001.4
20260504212022 25 175 9.7 16.1 0.00 6.99 6.88 57 1001.4
20260504211018 25 164 8.0 14.5 0.00 6.99 6.88 57 1001.5
20260504210026 25 176 9.7 12.9 0.00 6.99 6.88 56 1001.6
20260504205022 24 166 11.3 14.5 0.00 6.99 6.88 58 1001.7
20260504204018 23 173 9.7 19.3 0.00 6.99 6.88 61 1002.0
20260504203021 -17 158 8.0 8.0 0.00 6.99 6.88 1002.0
20260504202055 23 174 8.0 11.3 0.00 6.99 6.88 64 1002.1
20260504201050 23 169 8.0 12.9 0.00 6.99 6.88 65 1002.3
20260504200027 22 165 6.4 11.3 0.00 6.99 6.88 65 1002.4
20260504195023 22 163 9.7 17.7 0.00 6.99 6.88 64 1002.4
20260504194019 22 268 4.8 9.7 0.00 6.99 6.88 69 1002.3
20260504193058 20 151 4.8 6.4 0.00 6.99 6.88 72 1001.6
20260504192031 20 167 4.8 8.0 0.00 6.99 6.88 74 1001.7
20260504191026 19 193 8.0 12.9 0.00 6.99 6.88 73 1002.3
20260504190023 20 177 3.2 9.7 0.00 6.99 6.88 73 1003.2
20260504185023 20 166 4.8 8.0 0.00 6.99 6.88 72 1003.5
20260504184040 20 174 3.2 9.7 0.00 6.99 6.88 75 1003.5
20260504183028 19 176 6.4 9.7 6.83 6.99 6.88 75 1003.3
20260504182024 18 163 6.4 12.9 6.83 6.99 6.88 77 1003.6
20260504181019 18 156 4.8 8.0 6.83 6.99 6.88 79 1003.7
20260504180043 17 170 3.2 6.4 6.86 6.99 6.88 82 1003.7
20260504175024 17 177 3.2 8.0 6.88 6.99 6.88 81 1003.4
20260504174025 17 230 3.2 6.4 6.88 6.99 6.88 82 1004.0
20260504173044 17 184 3.2 8.0 0.05 0.15 0.05 80 1003.4
20260504172018 17 173 4.8 8.0 0.05 0.15 0.05 80 1003.7
20260504171021 17 168 3.2 4.8 0.05 0.15 0.05 81 1004.0
20260504151033 19 233 3.2 8.0 0.00 0.10 0.00 68 1005.6
20260504141022 20 185 4.8 8.0 0.00 0.10 0.00 67 1005.6